User: anonymous   Login
Location: Bou Ouachlou
(32.7770°N, 5.6009°W)
Time: 17:40:42
(UTC+00:00)
Language:

SL-16 R/B - Orbit

View from above orbital plane
View from above orbital plane
View from above satellite
View from above satellite

Ground track
Ground track

The orbit data is extracted from the following two-line orbital elements,

1 31793U 07029B   21136.73002800 -.00000317  00000-0 -14072-3 0  9994
2 31793  70.9758 266.2604 0002127 261.8503 199.1385 14.14444161716767
Epoch (UTC): 16 May 2021 17:31:14
Eccentricity: 0.0002127
inclination: 70.9758°
perigee height: 842 km
apogee height: 846 km
right ascension of ascending node: 266.2604°
argument of perigee: 261.8503°
revolutions per day: 14.14444161
mean anomaly at epoch: 199.1385°
orbit number at epoch: 71676

The dashed part of the orbit path shows where the satellite is in the earth's shadow,  

DLR